Wind_Speed
5 5 6 6 6 6 6 6 6 6 6 5 5 5 4 4 5 5 5 8 8 8 9 10 11 11 14 17 19 19 22 29 31 32 29 33 37 35 36 37 35 33 33 25 19
5 6 6 6 6 7 7 7 7 7 7 8 8 8 7 7 9 9 9 7 8 10 9 9 11 12 13 14 16 16 19 22 25 31 37 40 40 39 39 41 40 27 24 18 16
5 5 5 6 6 6 6 6 6 6 6 6 7 9 11 11 11 12 11 10 10 11 9 8 10 11 12 13 14 13 17 26 27 28 30 34 36 37 37 36 32 16 15 17 16
5 5 5 5 5 5 5 6 6 6 6 6 7 8 10 11 14 15 15 14 14 15 14 13 13 13 12 13 14 13 20 22 23 26 27 32 31 33 36 36 29 18 14 16 18
8 8 7 7 7 6 6 6 7 8 8 9 9 11 11 11 13 15 17 18 19 20 18 19 21 20 20 20 17 14 16 17 20 20 23 27 30 30 32 34 32 21 19 18 20
9 9 8 8 7 6 5 5 6 7 9 10 10 12 13 13 16 16 17 18 20 21 21 24 25 25 25 24 23 22 21 21 20 21 24 25 29 26 28 36 35 26 22 21 23
10 9 8 6 5 4 4 5 5 8 8 9 10 12 14 12 15 19 18 19 21 21 24 25 25 26 28 30 30 28 26 25 23 24 25 27 25 19 29 37 38 33 27 23 27
12 9 8 6 7 7 3 3 5 7 7 8 10 12 11 12 17 20 19 20 21 22 25 26 28 29 28 29 28 28 28 22 23 28 33 35 28 25 32 35 34 38 35 29 28
12 11 10 11 11 10 7 9 11 12 13 13 13 15 16 15 18 20 23 24 23 24 25 25 26 28 28 27 27 28 26 30 30 32 35 33 32 30 32 35 34 30 33 34 30
14 14 13 14 15 16 14 15 16 18 17 20 18 20 21 20 21 22 24 26 27 27 26 26 25 24 25 26 27 30 31 35 35 35 34 33 29 25 29 33 32 32 30 29 27
17 18 19 19 20 21 22 23 25 25 25 27 28 26 27 28 25 26 28 29 31 29 26 30 25 25 28 28 30 30 30 31 30 32 33 33 30 30 30 31 33 34 28 25 24
21 23 25 24 25 27 29 32 32 33 31 33 35 31 35 36 31 30 32 32 33 32 32 32 26 30 30 30 32 32 31 28 29 30 32 32 32 33 34 31 28 24 20 18 20
25 27 30 31 33 34 35 37 39 41 40 35 39 40 40 41 33 32 36 34 36 37 35 35 31 36 32 33 35 34 34 32 32 34 33 34 33 33 33 31 27 25 26 27 26
24 28 30 36 36 37 39 41 41 42 42 43 43 40 37 39 38 37 34 34 36 36 37 39 33 35 36 36 35 34 35 35 37 38 36 35 34 31 32 33 34 34 33 34 33
25 26 30 32 35 36 37 38 40 41 38 39 40 38 35 32 32 34 34 33 30 31 38 33 33 37 40 36 34 37 36 37 33 32 32 31 35 36 32 34 38 40 40 40 39
30 32 33 35 37 37 38 39 40 39 39 41 40 37 36 33 30 31 33 33 34 34 37 31 29 36 36 34 36 36 35 34 33 36 37 32 34 31 30 34 37 40 44 43 42
37 37 38 40 40 40 40 41 41 41 39 39 38 38 39 37 32 30 29 29 30 34 34 33 31 34 39 36 33 34 35 37 39 40 39 37 34 32 34 36 38 39 40 41 41
41 42 43 44 44 43 43 43 42 41 38 36 36 36 36 36 35 34 30 28 31 33 34 31 34 37 40 40 38 39 38 39 43 41 38 35 37 30 27 35 36 35 31 34 41
42 44 45 46 47 45 45 45 43 43 38 31 31 33 36 35 34 34 33 36 37 41 35 29 31 31 34 35 34 36 38 40 42 42 41 39 37 39 37 40 38 37 40 37 36
42 43 44 43 44 46 44 44 44 42 37 32 30 35 39 40 38 35 39 43 44 39 34 33 36 35 34 32 33 33 34 36 38 43 44 44 44 47 47 47 47 49 47 43 40
38 37 36 34 35 39 42 43 42 41 37 35 34 36 40 43 46 41 46 50 50 43 39 39 40 42 39 38 35 34 36 39 42 44 48 51 51 51 53 54 55 56 55 52 48
40 37 34 33 33 33 38 41 39 39 37 37 36 36 37 38 42 44 49 52 52 52 49 46 50 50 48 42 43 40 40 43 44 49 53 56 57 57 58 58 60 60 59 58 55
37 38 35 34 32 32 34 38 40 40 38 39 36 33 32 36 38 37 40 40 42 42 40 37 43 46 48 48 48 47 47 50 56 58 57 59 58 57 59 62 63 63 62 63 63
40 38 37 35 33 31 33 37 41 43 39 37 33 30 31 33 32 36 40 41 44 44 46 45 47 47 48 47 45 45 45 47 50 52 51 54 52 53 58 59 61 60 60 59 60
41 39 37 36 34 33 29 33 33 39 37 32 29 27 30 32 33 34 33 34 36 39 43 44 44 44 43 42 43 45 43 41 44 45 51 49 52 52 56 58 60 61 61 61 61
41 40 37 36 35 34 31 28 27 23 30 34 34 30 31 31 33 30 32 32 32 34 39 41 43 43 42 42 45 45 41 42 43 44 49 50 51 52 54 57 60 65 66 65 65
44 42 37 36 37 36 33 30 29 27 25 27 28 27 28 30 30 32 32 33 34 34 36 39 41 42 41 41 43 43 39 42 42 44 45 46 48 50 52 54 56 60 63 64 64
Wind_Direction
277 273 268 269 270 271 274 273 271 269 274 283 296 297 289 263 253 256 280 264 250 237 232 234 235 231 227 225 228 225 220 224 226 235 236 245 251 258 261 265 269 273 279 267 269
287 282 280 278 279 280 280 280 278 276 274 272 268 269 270 263 251 251 269 275 256 250 239 238 232 226 221 231 236 232 223 218 225 230 234 242 249 256 261 265 271 278 276 278 269
293 289 282 277 275 277 280 282 286 290 291 290 283 274 265 263 262 261 267 265 257 254 240 240 238 231 236 234 226 228 226 226 226 230 235 243 247 255 262 269 278 280 275 278 272
296 289 280 274 274 276 282 289 294 293 291 290 289 285 279 269 269 265 262 262 258 252 246 247 252 250 241 235 235 222 233 239 242 244 244 250 251 255 263 270 275 263 257 264 272
284 275 267 264 265 268 273 278 285 289 290 288 284 280 277 280 276 273 270 264 260 260 257 256 255 258 257 255 250 243 248 254 252 252 252 252 259 260 264 272 281 267 268 262 263
276 267 264 260 258 263 272 286 298 307 308 298 288 281 278 279 274 274 273 273 273 268 268 266 262 260 257 256 253 252 258 262 262 262 263 261 255 266 272 278 282 279 271 268 267
271 265 253 240 239 247 273 308 346 355 351 345 327 303 288 280 277 273 273 272 271 271 268 263 262 261 260 259 257 255 254 261 266 265 263 260 262 260 259 262 276 280 273 269 272
267 244 233 232 255 253 243 313 323 319 319 329 326 320 312 280 278 276 271 270 270 271 270 266 263 260 258 259 259 258 256 249 236 243 249 257 259 249 249 255 252 264 276 275 274
249 237 240 255 255 246 272 293 306 313 309 304 307 309 305 291 284 282 280 269 265 266 267 268 267 262 259 258 259 257 254 248 247 246 248 254 257 244 246 254 258 253 255 265 270
244 242 256 263 263 260 276 294 297 293 295 292 291 290 292 288 286 280 279 276 266 260 261 262 263 267 263 255 248 248 248 251 251 252 256 258 253 245 252 252 254 255 253 253 253
251 251 258 262 267 268 273 276 280 284 288 288 288 287 285 281 276 276 271 270 270 264 262 263 258 255 256 255 255 252 250 252 254 256 257 258 257 257 248 259 264 256 247 249 250
262 259 265 271 275 276 277 280 284 286 289 290 290 287 283 283 278 275 272 266 264 261 256 257 258 251 248 251 253 250 249 250 251 253 259 260 258 259 256 253 263 261 261 257 255
272 271 273 276 281 283 283 283 285 288 288 284 284 282 279 281 275 268 266 266 266 259 255 251 248 252 250 249 250 255 259 255 254 251 254 254 253 254 255 256 259 266 268 264 253
284 281 279 279 282 284 285 286 288 288 289 288 286 283 280 278 276 271 271 265 262 259 255 251 245 251 253 250 253 256 257 255 252 253 251 252 256 255 256 259 264 264 261 259 257
295 293 292 290 288 285 286 286 287 289 288 289 289 289 289 288 286 276 269 262 260 255 256 254 243 246 248 251 254 255 249 251 253 256 257 255 254 255 254 256 259 262 264 266 265
289 287 285 285 284 284 284 286 286 285 286 287 286 286 287 286 279 274 270 273 267 260 256 251 247 250 249 247 249 254 257 259 259 260 258 256 256 257 259 257 256 254 258 261 264
294 292 291 289 287 286 285 284 284 282 282 282 284 285 285 281 278 270 268 272 269 262 257 254 240 237 243 238 244 253 259 259 260 261 268 269 270 266 266 262 261 258 258 260 261
293 290 287 284 282 282 280 277 277 277 273 275 276 276 276 278 278 276 276 267 260 262 264 257 247 243 250 253 248 251 250 254 263 266 268 269 269 268 261 264 259 260 257 258 260
305 302 296 291 288 284 281 279 276 270 268 265 262 264 267 267 266 266 261 259 260 272 259 261 261 269 262 258 260 258 256 257 261 268 271 268 263 267 264 266 266 258 265 267 262
308 306 305 302 293 286 282 280 276 273 270 260 246 245 247 250 251 249 252 258 255 254 261 263 272 271 272 266 269 269 264 261 260 266 268 267 268 266 266 265 265 266 266 262 257
311 310 308 303 300 293 287 281 278 277 270 256 247 242 243 244 246 249 252 252 257 262 259 267 269 270 274 270 275 274 267 261 261 263 268 270 270 267 268 271 272 273 274 274 271
315 314 312 308 303 299 290 286 278 272 268 267 263 256 252 248 248 250 253 256 259 262 265 266 269 269 270 264 263 264 259 258 261 263 264 269 271 274 274 272 272 274 275 275 272
314 316 315 313 308 299 289 281 273 267 266 266 264 261 257 255 251 251 254 256 258 262 264 262 259 264 265 263 265 265 262 258 262 266 266 269 270 274 273 272 273 273 273 274 274
313 314 313 314 313 309 299 286 278 271 263 264 264 262 260 259 256 258 259 260 258 263 265 264 262 264 267 267 265 264 265 265 263 264 267 267 270 270 271 272 272 272 272 269 267
308 308 309 309 307 308 306 299 288 280 269 267 268 261 263 269 268 266 264 265 266 265 266 266 265 265 264 265 266 266 265 265 268 269 270 271 270 272 274 276 277 275 272 271 271
302 303 301 300 299 300 300 302 295 293 288 278 270 265 260 265 262 265 266 267 263 264 267 266 267 266 267 269 267 267 270 268 266 266 267 270 273 273 274 274 274 277 277 275 272
298 296 294 295 295 292 292 291 290 288 282 284 280 277 275 271 273 271 268 264 265 265 264 269 273 274 273 273 274 274 272 271 271 270 269 270 274 275 274 274 275 275 276 276 275
Height
5871 5870 5869 5868 5868 5867 5867 5867 5867 5867 5866 5866 5866 5865 5864 5864 5864 5864 5864 5864 5864 5864 5865 5866 5868 5869 5870 5871 5872 5874 5877 5880 5882 5881 5883 5880 5877 5879 5881 5883 5886 5888 5888 5891 5893
5869 5869 5868 5867 5867 5866 5866 5865 5865 5865 5864 5864 5864 5863 5863 5863 5863 5863 5863 5863 5863 5863 5863 5864 5866 5867 5868 5869 5871 5873 5875 5875 5876 5876 5878 5876 5875 5875 5877 5878 5883 5886 5884 5886 5889
5868 5867 5867 5866 5865 5865 5864 5864 5863 5863 5863 5862 5862 5861 5861 5861 5861 5861 5861 5861 5861 5862 5862 5863 5864 5865 5866 5867 5868 5870 5871 5870 5871 5872 5874 5873 5874 5872 5871 5872 5879 5881 5881 5882 5884
5867 5867 5866 5865 5864 5863 5863 5862 5862 5861 5861 5860 5860 5859 5858 5859 5860 5858 5859 5859 5859 5859 5860 5861 5862 5863 5864 5864 5865 5866 5866 5867 5868 5869 5870 5869 5871 5870 5867 5868 5874 5877 5878 5879 5879
5866 5865 5864 5863 5863 5862 5861 5861 5860 5859 5859 5859 5858 5857 5856 5857 5856 5855 5855 5855 5856 5856 5856 5857 5858 5859 5861 5861 5863 5863 5863 5864 5865 5866 5866 5866 5866 5866 5865 5864 5866 5872 5873 5875 5876
5864 5863 5862 5862 5861 5861 5860 5859 5859 5858 5857 5856 5855 5855 5854 5854 5852 5852 5851 5851 5852 5852 5852 5853 5855 5855 5855 5856 5858 5859 5859 5861 5861 5861 5862 5863 5863 5864 5864 5859 5859 5864 5867 5869 5869
5862 5861 5861 5861 5860 5859 5859 5858 5857 5856 5855 5854 5852 5851 5851 5852 5849 5847 5848 5847 5847 5848 5848 5848 5849 5849 5850 5849 5852 5853 5855 5856 5856 5856 5856 5856 5860 5860 5861 5856 5852 5854 5858 5863 5862
5859 5859 5859 5859 5858 5858 5857 5857 5856 5854 5853 5852 5851 5849 5848 5847 5845 5843 5843 5842 5842 5843 5843 5843 5843 5843 5843 5843 5845 5846 5848 5850 5847 5848 5848 5849 5856 5854 5851 5849 5851 5848 5849 5853 5854
5856 5857 5857 5856 5856 5855 5855 5854 5853 5851 5850 5849 5848 5846 5845 5843 5841 5840 5838 5838 5837 5836 5836 5836 5837 5838 5838 5838 5838 5839 5841 5840 5841 5840 5840 5845 5849 5846 5845 5845 5845 5847 5846 5845 5846
5854 5854 5854 5853 5853 5852 5851 5850 5848 5847 5845 5843 5843 5843 5840 5839 5836 5835 5833 5831 5831 5830 5830 5829 5830 5832 5831 5831 5831 5830 5832 5833 5834 5834 5835 5837 5842 5841 5839 5840 5841 5841 5842 5842 5843
5852 5851 5850 5850 5849 5848 5847 5844 5844 5842 5840 5838 5837 5836 5833 5831 5831 5830 5827 5825 5824 5824 5823 5821 5824 5825 5824 5825 5824 5824 5825 5826 5828 5827 5828 5830 5834 5835 5835 5835 5836 5836 5836 5836 5837
5848 5847 5846 5845 5844 5842 5841 5838 5836 5835 5836 5830 5828 5829 5824 5822 5823 5821 5820 5819 5817 5817 5816 5817 5819 5816 5815 5817 5817 5817 5817 5820 5820 5821 5822 5824 5827 5827 5827 5827 5830 5830 5829 5831 5830
5844 5843 5841 5840 5838 5837 5834 5830 5828 5825 5823 5825 5820 5817 5815 5812 5814 5812 5810 5810 5809 5808 5809 5809 5810 5807 5809 5807 5807 5810 5812 5813 5813 5813 5814 5816 5820 5820 5820 5821 5823 5822 5820 5819 5820
5839 5837 5836 5832 5832 5828 5825 5822 5819 5815 5813 5811 5807 5806 5806 5803 5803 5802 5802 5802 5800 5801 5799 5798 5801 5801 5800 5799 5800 5802 5804 5805 5805 5804 5807 5807 5810 5812 5813 5814 5812 5810 5812 5813 5814
5832 5830 5827 5824 5822 5819 5816 5813 5810 5807 5804 5800 5797 5796 5795 5796 5795 5793 5791 5790 5792 5792 5791 5795 5793 5792 5790 5793 5794 5794 5795 5795 5797 5798 5798 5800 5800 5800 5804 5806 5804 5804 5804 5805 5806
5824 5821 5818 5816 5812 5809 5806 5803 5800 5798 5793 5791 5789 5788 5786 5784 5784 5783 5783 5783 5784 5783 5782 5785 5787 5784 5786 5786 5785 5785 5787 5788 5790 5791 5791 5793 5792 5796 5797 5796 5794 5794 5794 5796 5797
5814 5811 5808 5805 5802 5799 5795 5792 5790 5787 5785 5782 5780 5777 5774 5773 5775 5775 5776 5776 5775 5774 5775 5776 5778 5778 5775 5778 5780 5779 5780 5781 5781 5781 5783 5783 5786 5786 5787 5785 5785 5787 5787 5788 5788
5802 5800 5796 5792 5788 5786 5783 5780 5777 5775 5772 5772 5770 5768 5765 5764 5764 5764 5766 5766 5764 5764 5767 5768 5771 5771 5771 5772 5774 5772 5773 5773 5770 5773 5775 5774 5772 5776 5777 5772 5775 5776 5778 5779 5780
5790 5786 5782 5778 5775 5774 5772 5768 5765 5762 5761 5761 5760 5757 5755 5757 5758 5757 5757 5755 5755 5755 5757 5759 5761 5764 5764 5763 5766 5767 5766 5766 5763 5762 5761 5764 5767 5764 5766 5763 5764 5766 5768 5769 5769
5780 5775 5771 5766 5762 5759 5757 5755 5752 5751 5751 5750 5749 5747 5747 5748 5748 5750 5746 5745 5745 5746 5748 5750 5752 5754 5756 5757 5757 5758 5760 5759 5756 5753 5750 5750 5752 5752 5753 5754 5754 5753 5754 5757 5758
5769 5764 5759 5755 5750 5747 5745 5742 5741 5740 5740 5738 5737 5737 5736 5737 5738 5740 5736 5735 5736 5737 5740 5740 5742 5745 5748 5747 5746 5748 5747 5748 5746 5745 5739 5738 5739 5740 5741 5740 5740 5741 5743 5745 5746
5756 5753 5748 5743 5741 5737 5734 5732 5731 5729 5729 5729 5728 5727 5727 5729 5730 5729 5726 5726 5728 5728 5731 5732 5730 5731 5734 5737 5737 5736 5734 5735 5733 5732 5731 5729 5728 5728 5727 5727 5726 5726 5727 5729 5732
5747 5742 5740 5734 5730 5727 5724 5721 5719 5718 5717 5717 5717 5719 5720 5719 5720 5721 5720 5720 5719 5718 5717 5720 5716 5717 5717 5722 5723 5723 5723 5722 5721 5719 5719 5717 5716 5716 5714 5712 5711 5712 5713 5712 5713
5737 5732 5729 5725 5721 5718 5714 5712 5709 5707 5708 5708 5708 5709 5709 5710 5711 5710 5710 5709 5709 5707 5705 5705 5706 5707 5708 5709 5709 5709 5710 5709 5709 5707 5707 5703 5705 5706 5699 5697 5695 5695 5695 5697 5697
5728 5724 5719 5716 5713 5709 5706 5703 5700 5699 5698 5698 5699 5701 5701 5701 5701 5701 5701 5701 5699 5698 5696 5695 5695 5696 5697 5698 5696 5695 5698 5701 5698 5696 5690 5694 5691 5691 5687 5683 5680 5678 5678 5676 5675
5718 5715 5710 5707 5704 5700 5698 5697 5693 5691 5690 5689 5690 5689 5688 5690 5691 5693 5692 5691 5690 5689 5686 5685 5684 5685 5687 5686 5684 5686 5689 5688 5687 5686 5681 5679 5679 5678 5675 5671 5666 5659 5656 5659 5660
5706 5705 5699 5697 5694 5691 5690 5687 5686 5685 5683 5681 5681 5681 5681 5681 5682 5682 5682 5682 5681 5680 5677 5676 5675 5674 5675 5674 5674 5675 5676 5673 5673 5671 5671 5670 5667 5664 5661 5658 5655 5648 5641 5639 5639